Location: Petruro
(41.0333°N, 14.7833°E)
Time: 14:53:22
(UTC+00:00)

USA 306 - Pass Details

Date: 20 June 2021
Orbit: 566 x 573 km, 54.0° (Epoch: 16 July)

Event Time Altitude Azimuth Distance (km) Brightness Sun altitude
Exits shadow 01:31:13 17° 271° (W) 1,452 4.6 -16.9°
Maximum altitude 01:33:56 36° 329° (NNW) 913 4.1 -16.6°
Drops below altitude 10° 01:37:53 10° 37° (NE) 1,872 6.9 -16.1°
Sets 01:40:17 0° 47° (NE) 2,770 8.1 -15.9°
